AMC-3

Last updated on Wed Oct 22 2025 00:02:45 GMT+0000 (Coordinated Universal Time)

1 24936U 97050A 25294.32231549 -.00000253 00000+0 00000+0 0 9995 2 24936 7.5592 66.7833 0002875 159.6059 207.6868 1.00272453 50044
UTC large
Height (km)
Speed (km/s)
/
Latitude / Longitude
Inclination (degrees)
Orbital Period (minutes)
Azimuth
Elevation
Range (km)
Doppler Factor

Next 0 passes for location: London (51.5072 / 0.1276)

Sorry there are no passes over London.